This is the latest recevied weather packets stored in our database for station/object DK8HC-WX. If no packets are shown the sender has not sent any weather packets the latest 10 day(s).
| Time | Temp. | Humidity | Pressure | Rain* | Wind** | Luminosity | Snow |
|---|---|---|---|---|---|---|---|
| 1777182670 | 13.33° C | 100% | 1026.6 hPa | - | - | - | - |
| 1777182070 | 12.78° C | 100% | 1026.3 hPa | - | - | - | - |
| 1777181470 | 10.56° C | 100% | 1026.2 hPa | - | - | - | - |
| 1777180870 | 9.44° C | 100% | 1026.5 hPa | - | - | - | - |
| 1777180270 | 9.44° C | 100% | 1027.4 hPa | - | - | - | - |
| 1777179670 | 7.78° C | 100% | 1028 hPa | - | - | - | - |
| 1777179070 | 6.67° C | 100% | 1028.2 hPa | - | - | - | - |
| 1777178470 | 4.44° C | 100% | 1027.7 hPa | - | - | - | - |
| 1777177870 | 2.78° C | 100% | 1027.2 hPa | - | - | - | - |
| 1777177270 | 2.22° C | 100% | 1026.9 hPa | - | - | - | - |
| 1777176070 | 2.22° C | 100% | 1026.3 hPa | - | - | - | - |
| 1777175470 | 2.22° C | 100% | 1026 hPa | - | - | - | - |
| 1777174869 | 2.22° C | 100% | 1025.7 hPa | - | - | - | - |
| 1777174269 | 2.22° C | 100% | 1025.4 hPa | - | - | - | - |
| 1777173669 | 2.22° C | 100% | 1025.1 hPa | - | - | - | - |
| 1777173069 | 2.22° C | 100% | 1025 hPa | - | - | - | - |
| 1777172469 | 2.22° C | 100% | 1024.8 hPa | - | - | - | - |
| 1777171869 | 2.22° C | 100% | 1024.6 hPa | - | - | - | - |
| 1777171269 | 2.22° C | 100% | 1024.3 hPa | - | - | - | - |
| 1777170669 | 2.78° C | 100% | 1024.2 hPa | - | - | - | - |
| 1777170069 | 2.78° C | 100% | 1024.1 hPa | - | - | - | - |
| 1777169469 | 2.78° C | 100% | 1023.9 hPa | - | - | - | - |
| 1777168869 | 2.78° C | 100% | 1023.7 hPa | - | - | - | - |
| 1777168269 | 3.33° C | 100% | 1023.6 hPa | - | - | - | - |
| 1777167669 | 3.33° C | 100% | 1023.4 hPa | - | - | - | - |
* Rain since midnight (hover to see other rain measurements)
** Current wind speed in m/s (hover to see current wind gust speed)